Regional Weather Roundup
Issued by NWS

Home | Current Version | Previous Version | Graphics & Text | Print | Product List | Glossary On
Versions: 1 2 3 4 5 6 7 8 9 10 11 12 13 14 15 16 17 18 19 20 21 22 23 24 25 26 27 28 29 30 31 32 33 34 35 36 37 38 39 40 41 42 43 44 45 46 47 48 49 50
000
ASUS45 KCYS 211210
RWRWY

WYOMING REGIONAL WEATHER ROUNDUP
NATIONAL WEATHER SERVICE CHEYENNE WY
600 AM MDT THU AUG 21 2014

NOTE:  "FAIR" INDICATES FEW OR NO CLOUDS BELOW 12,000 FEET
WITH NO SIGNIFICANT WEATHER AND/OR OBSTRUCTIONS TO VISIBILITY.

WYZ001-211300-
YELLOWSTONE NATIONAL PARK

CITY           SKY/WX    TMP DP  RH WIND       PRES   REMARKS
LK YELLOWSTONE   N/A     45  44  97 CALM      30.20S
6HR MIN TEMP:  41; 6HR MAX TEMP:  45;

W YELLOWSTONE  NOT AVBL

$$
WYZ002>013-054>058-071-098>099-211300-
NORTHERN WYOMING

CITY           SKY/WX    TMP DP  RH WIND       PRES   REMARKS
JACKSON        CLOUDY    50  50 100 S5        30.14S
CODY           CLOUDY    61  45  55 W5        30.04S
GREYBULL       CLOUDY    61  53  75 CALM      29.98R
6HR MIN TEMP:  60; 6HR MAX TEMP:  66;

WORLAND        MOCLDY    54  47  77 CALM      29.99S
6HR MIN TEMP:  52; 6HR MAX TEMP:  65;

SHERIDAN       MOCLDY    52  47  83 S6        29.98R
6HR MIN TEMP:  52; 6HR MAX TEMP:  65;

BUFFALO        PTCLDY    56  47  71 NW7       30.03R
6HR MIN TEMP:  56; 6HR MAX TEMP:  64; 6HR PCP: TRACE;

GILLETTE       PTCLDY    57  53  86 W3        29.97S
6HR MIN TEMP:  57; 6HR MAX TEMP:  65; 6HR PCP:  0.02;

HULETT         PTSUNNY   59  54  82 MISG      29.98
NEWCASTLE      FAIR      63  48  59 MISG      29.97

$$
WYZ014>020-022>026-101>103-211300-
CENTRAL WYOMING

CITY           SKY/WX    TMP DP  RH WIND       PRES   REMARKS
BIG PINEY      MOCLDY    46  44  93 N6        30.18S
6HR MIN TEMP:  45; 6HR MAX TEMP:  51; 6HR PCP: TRACE;

PINEDALE       PTSUNNY   43  43 100 CALM      30.19S
DUBOIS         CLOUDY    48  41  76 NW12G17   30.12S
LANDER         MOCLDY    56  46  69 W8        30.04R
6HR MIN TEMP:  54; 6HR MAX TEMP:  64; 6HR PCP:  0.02;

RIVERTON       MOCLDY    58  40  51 W8        30.05R
6HR MIN TEMP:  57; 6HR MAX TEMP:  62;

CASPER         PTCLDY    54  43  66 CALM      30.06R
6HR MIN TEMP:  51; 6HR MAX TEMP:  65;

DOUGLAS        PTCLDY    57  46  66 NW5       30.04R
6HR MIN TEMP:  57; 6HR MAX TEMP:  67;


$$
WYZ021-027>030-104>119-211300-
SOUTHERN WYOMING

CITY           SKY/WX    TMP DP  RH WIND       PRES   REMARKS
EVANSTON       CLOUDY    50  48  93 SW9       30.18R
6HR MIN TEMP:  50; 6HR MAX TEMP:  51; 6HR PCP:  0.15;

KEMMERER       PTSUNNY   46  45  93 N5        30.20S
FORT BRIDGER   FAIR      51  47  85 S10       30.19F
ROCK SPRINGS   NOT AVBL
DIXON          FAIR      49  47  93 CALM      30.23S
RAWLINS        PTCLDY    48  45  89 CALM      30.17F
6HR MIN TEMP:  48; 6HR MAX TEMP:  56;

SARATOGA       FAIR      45  43  93 MISG      30.22R
LARAMIE        PTCLDY    51  42  71 NE3       30.19R
6HR MIN TEMP:  49; 6HR MAX TEMP:  57;

CHEYENNE       CLEAR     58  45  62 W15G24    30.11R
6HR MIN TEMP:  54; 6HR MAX TEMP:  63;

TORRINGTON     CLEAR     56  48  74 NE5       29.98R
6HR MIN TEMP:  54; 6HR MAX TEMP:  66;

PINE BLUFFS    FAIR      54  46  76 W7        30.05S

$$



USA.gov is the U.S. government's official web portal to all federal, state and local government web resources and services.